7 * 24
多渠道服务支持
STARLINK-37923(NORAD编号69949)是美国SpaceX公司星链低轨通信星座的成员卫星,归属星链第二阶段组网批次。该卫星搭载升级型星间激光通信终端,单星通信容量较前代提升20%,端到端传输延迟可低至30ms以内,适配航空、海事等移动场景的高速通信需求。 作为低轨通信卫星,其部署于约550公里高度的近地轨道,轨道倾角53°,与星链星座53°倾角壳层组网规划匹配,可服务全球广域低延迟互联网覆盖需求,是SpaceX推进全球卫星互联网组网的现役节点之一。
美国
(US)
| 数据来源 | 国际轨道数据 |
| 星历时间: | 2026-09-04T12:23:42+0800 1天前 查看轨道信息 |
| 半长轴: | 6840.797km |
| 偏心率: | 0.0000233 |
| 轨道倾角: | 53.162° |
| 近地点辐角 | 219.965° |
| 升交点赤经 | 50.311° |
| 平近点角 | 140.133° |
| 近地点: | 462.5km |
| 远地点: | 462.82km |
| 周期: | 93.847分钟 |
| 每日圈数: | 15.344148 |